Flag for Germany Weather past 2 weeks in Pirmasens, Rhineland-Palatinate, Germany

Now
40 °F

Light rain. Overcast.


Feels Like: 30 °F
Forecast: 29 / 36 °F
Wind: 18 mph from Southwest

Location: Ramstein

Current Time: Jan 28, 2015 at 10:01:39 PM

Latest Report: Jan 28, 2015 at 8:58 PM


Visibility: N/A

Pressure: 29.54 "Hg

Humidity: 87%

Dew point: 36 °F

Location of PirmasensLocation

Historic Weather in Pirmasens — Graph

°F

Pirmasens temperature yesterday

Maximum temperature yesterday: 38 °F (at 12:58 PM)
Minimum temperature yesterday: 27 °F (at 5:58 AM)
Average temperature yesterday: 34 °F

Past Weeks' High & Low Weather Summary

 TemperatureHumidityPressure
High52 °F (Jan 13, 8:03 PM)100% (Jan 16, 2:58 PM)30.48 "Hg (Jan 16, 2:58 PM)
Low21 °F (Jan 21, 12:58 AM)54% (Jan 15, 3:58 PM)29.54 "Hg (Jan 28, 8:58 PM)
Average35 °F87%30.03 "Hg
* Reported Jan 13 8:03 PM — Jan 28 8:58 PM, Pirmasens, Weather by CustomWeather, © 2014

Note: Actual official high and low records may vary slightly from our data, if they occured in-between our weather recording intervals... More about our weather records

Advertising

Pirmasens weather history for previous 24 hours

 ConditionsComfort  
Time TempWeatherWind HumidityBarometerVisibility
8:58 PM
Jan 28
40 °FLight rain. Overcast.18 mph87%29.54 "HgN/A
7:58 PM39 °FLight rain. Mostly cloudy.20 mph87%29.59 "HgN/A
6:58 PM39 °FLight rain. Overcast.17 mph86%29.62 "HgN/A
5:58 PM39 °FLight rain. Mostly cloudy.15 mph81%29.67 "HgN/A
4:58 PM39 °FOvercast.15 mph76%29.73 "HgN/A
3:58 PM39 °FMostly cloudy.9 mph75%29.76 "HgN/A
3:03 PM39 °FLight rain. Partly sunny.12 mph75%29.79 "HgN/A
2:58 PM39 °FPartly sunny.12 mph77%29.84 "HgN/A
2:02 PM39 °FMostly cloudy.14 mph75%29.85 "HgN/A
1:58 PM39 °FMostly cloudy.12 mph81%29.90 "HgN/A
1:03 PM37 °FOvercast.14 mph81%29.90 "HgN/A
12:58 PM38 °FOvercast.14 mph82%29.94 "HgN/A
11:59 AM37 °FOvercast.10 mph81%29.96 "HgN/A
11:58 AM37 °FLow clouds.10 mph83%30.00 "HgN/A
10:58 AM37 °FMostly cloudy.10 mph87%30.04 "HgN/A
9:58 AM37 °FLow clouds.8 mph88%30.07 "HgN/A
8:58 AM36 °FLow clouds.6 mph90%30.10 "HgN/A
7:58 AM36 °FLow clouds.5 mph93%30.10 "HgN/A
6:58 AM36 °FLow clouds.6 mph93%30.13 "HgN/A
5:58 AM36 °FLow clouds.5 mph93%30.13 "HgN/A
4:58 AM36 °FLow clouds.5 mph90%30.17 "HgN/A
3:58 AM36 °FLow clouds.5 mph88%30.19 "HgN/A
3:04 AM36 °FLow clouds.7 mph87%30.17 "HgN/A
2:58 AM36 °FLow clouds.5 mph87%30.21 "HgN/A
1:58 AM35 °FLow clouds.3 mph88%30.22 "HgN/A
12:58 AM34 °FPassing clouds.2 mph91%30.23 "HgN/A
11:58 PM
Jan 27
35 °FOvercast.5 mph87%30.24 "HgN/A
10:58 PM36 °FOvercast.3 mph87%30.24 "HgN/A
Weather by CustomWeather, © 2014

See weather overviewHow to use our weather pages